Language selection

Features

My Weather Profile Weather Topics  | 

Great Lakes - Lake Erie and Lake Ontario: Past 24 Hour Conditions

 

Georgian Bay - 45137

06:00 AM EST 13 November 2019Buoy position: 45.55N 81.0W
Disclaimer

This table is a summary of hourly weather conditions for the past 24 hours.
Please note that these observations might not always be representative of weather conditions over their associated marine area.

Date / Time
(EST)
Wind(knots) Wave height(m) Wave period(s) Pressure(kPa) Air tempC) Water tempC)
13 November 2019
6:00 E 6 gust 10 0.3 3.0 102.8 -10 7
5:00 NNE 4 gust 10 0.4 3.0 102.8 -10 7
4:00 NNE 8 gust 12 0.4 3.0 102.7 -11 8
3:00 NE 10 gust 13 0.5 3.0 102.7 -11 8
2:00 N 12 gust 16 0.5 3.0 102.7 -11 8
1:00 NNE 12 gust 16 0.6 4.0 102.7 -11 8
0:00 NNE 12 gust 16 0.6 4.0 102.6 -11 8
12 November 2019
23:00 N 12 gust 17 0.7 4.0 102.6 -10 8
22:00 NNE 12 gust 17 0.7 4.0 102.5 -10 8
21:00 N 13 gust 19 0.8 4.0 102.5 -10 8
20:00 NNW 13 gust 17 0.9 4.0 102.5 -9 8
19:00 NNW 13 gust 22 1.0 5.0 102.5 -9 8
18:00 NNW 17 gust 22 1.2 5.0 102.4 -8 8
17:00 NNW 19 gust 23 1.4 5.0 102.4 -8 8
16:00 NNW 19 gust 25 1.1 4.0 102.3 -7 8
15:00 NW 19 gust 27 0.9 4.0 102.3 -8 8
14:00 NW 17 gust 23 0.8 4.0 102.3 -8 8
13:00 NW 16 gust 23 0.7 4.0 102.3 -9 8
12:00 NNW 16 gust 22 0.7 4.0 102.4 -9 8
11:00 N 13 gust 17 0.7 4.0 102.4 -10 8
10:00 N 13 gust 19 0.8 4.0 102.4 -10 8
9:00 N 13 gust 19 0.8 4.0 102.4 -10 8
8:00 NNE 13 gust 19 0.8 4.0 102.4 -9 8
7:00 N 13 gust 19 0.9 4.0 102.3 -9 8
6:00 NNE 16 gust 19 1.0 5.0 102.2 -8 8

Zoom-in to make a selection

Map of Great Lakes - Lake Erie and Lake Ontario marine weather areas N Huron - 45003 W Erie - 45005 S Huron - 45008 Lake Ontario - 45012 Port Stanley - 45132 Prince Edward Point - 45135 Georgian Bay - 45137 Grimsby - 45139 Port Colborne - 45142 South Georgian Bay - 45143 Lake St Clair - 45147 South Lake Huron - 45149 Lake Simcoe - 45151 Lake Nipissing - 45152 North Channel - 45154 Ajax - 45159 Sault Ste. Marie Airport Killarney Greater Sudbury Airport North Bay Airport Gore Bay-Manitoulin Airport Great Duck Island Brockville Grenadier Island Kingston Airport Collingwood Lagoon City Muskoka Airport Parry Sound Harbour Lake Simcoe Regional Airport Wiarton Airport Western Islands Cove Island Goderich Sarnia Chris Hadfield Airport Tobermory Harrow AAFC Long Point Port Weller St. Catharines / Niagara District Airport Southeast Shoal Vineland Station Welland-Pelham Windsor Airport Port Colborne Erieau Point Pelee Burlington Lift Bridge Cobourg Hamilton Munro Int'l Airport Oshawa Executive Airport Point Petre Toronto City Centre Airport CFB Trenton Peterborough Municipal Airport
Legend:
buoy Buoy
land station Land Station

Great Lakes - Lake Erie and Lake Ontario Area

Another Region

What we are doing

Date modified: